Theta_e
325 325 325 326 326 327 328 328 326 326 325 324 323 321 321 323 324 316 312 315 317 326 321 310 310 310 311 309 310 308 298 296 298 297 299 304 301 303 303 305 308 308 314 323 329
324 325 325 325 325 327 328 328 326 327 325 323 322 321 321 324 318 313 323 324 326 328 312 307 305 308 303 306 305 301 297 300 302 300 300 303 303 302 300 303 303 309 322 326 327
323 323 324 324 325 326 327 327 326 326 326 324 322 322 323 321 309 312 327 329 329 328 315 311 308 306 303 303 302 301 298 302 301 302 305 303 301 304 300 299 303 306 318 323 324
323 323 323 324 325 326 326 326 326 327 327 326 323 322 322 316 299 313 326 327 330 321 313 308 306 302 301 300 303 297 301 302 303 303 304 302 303 300 300 298 305 309 319 322 322
322 322 322 323 323 325 325 325 326 326 326 326 325 324 316 304 304 315 326 327 323 316 309 305 302 302 298 301 302 299 300 302 302 302 302 304 300 299 300 302 303 307 316 319 321
321 321 321 321 322 323 325 325 325 325 325 326 325 322 311 297 312 316 319 321 316 311 308 306 303 305 301 300 300 302 302 300 301 300 300 300 298 298 298 302 301 303 307 314 318
321 320 320 320 321 322 323 324 324 324 324 325 325 317 306 305 312 313 317 315 316 312 306 307 306 303 302 300 301 301 296 297 299 300 297 298 294 294 297 299 300 300 304 309 315
320 319 319 320 321 322 322 323 323 323 323 324 324 313 301 313 312 310 311 310 312 311 309 309 308 304 302 301 298 297 296 291 296 297 297 295 291 295 298 296 297 299 299 305 310
319 318 319 319 320 321 322 322 321 322 323 323 314 309 298 313 306 309 309 306 308 307 308 307 306 301 300 293 291 293 288 291 292 297 296 293 291 295 297 297 295 296 298 302 305
318 318 318 319 319 320 320 320 320 320 318 315 310 302 304 301 307 307 308 308 304 304 302 302 300 296 294 292 286 288 287 291 289 293 293 292 291 294 297 296 295 296 298 298 299
318 318 318 318 319 320 318 314 306 303 307 299 299 299 300 306 308 305 307 305 304 301 294 298 292 289 292 293 294 294 292 290 291 294 293 292 292 295 297 295 293 295 298 298 299
318 318 318 318 319 319 315 303 304 305 297 303 302 301 306 305 299 302 307 299 299 293 296 294 290 295 297 296 294 291 290 288 291 294 291 291 292 295 296 296 295 296 296 296 296
317 317 317 318 318 315 310 306 310 308 295 298 301 299 302 304 299 299 302 300 296 293 293 291 294 297 296 292 291 290 290 288 289 290 289 288 287 291 292 293 295 295 295 296 297
317 317 316 317 311 311 308 312 313 310 289 292 295 299 302 303 298 304 303 300 296 292 294 293 295 294 292 291 292 288 292 292 290 287 282 288 279 288 290 292 294 296 295 296 298
316 316 316 315 308 306 310 314 314 307 278 293 295 304 303 298 298 298 303 299 294 294 294 290 290 291 291 293 294 290 294 292 291 287 285 283 281 284 290 290 293 295 297 298 299
316 315 315 312 311 310 312 314 310 289 279 290 295 294 294 296 297 298 298 300 299 294 293 291 293 293 293 293 294 295 292 291 290 288 279 284 282 282 285 290 292 295 296 297 297
313 315 312 314 305 313 315 308 288 281 293 289 289 293 292 291 293 294 292 291 289 286 286 289 290 293 294 290 292 291 288 279 278 277 278 282 282 285 288 293 295 294 295 296 298
307 314 312 313 316 315 310 295 280 287 289 294 292 292 288 292 292 292 291 288 292 290 287 284 282 289 293 291 288 288 287 281 276 276 277 280 279 285 291 296 297 297 296 297 297
306 310 308 305 312 314 299 284 284 289 293 292 291 287 288 290 291 291 289 289 291 292 285 285 285 291 292 293 292 288 285 289 280 275 277 280 283 287 291 294 295 295 296 296 297
299 305 299 303 308 309 294 287 290 295 296 294 287 289 285 287 288 288 289 292 291 294 293 289 283 289 290 292 291 289 291 282 283 273 274 279 280 282 286 291 294 294 295 296 297
296 296 298 302 308 299 287 289 293 297 297 292 290 288 288 287 289 288 289 291 295 292 292 290 289 285 289 287 287 286 285 285 286 284 278 275 279 286 289 293 293 294 297 297 296
292 286 297 301 293 293 289 293 296 295 299 296 295 292 290 290 288 288 288 290 295 294 288 292 288 282 284 289 289 288 288 288 282 279 280 281 281 291 291 294 295 295 297 297 297
286 286 297 297 286 288 293 293 295 295 295 295 294 295 293 291 286 290 290 294 294 293 290 292 287 279 282 286 288 286 287 288 287 285 277 276 279 291 289 294 296 295 296 297 296
289 285 287 290 289 292 290 290 291 298 296 297 295 295 292 289 291 289 290 294 295 293 296 295 290 285 281 283 288 284 287 287 287 280 280 282 282 285 289 292 295 296 297 296 296
291 285 285 284 285 287 292 292 290 290 297 298 294 294 291 287 289 288 291 292 294 295 293 292 284 287 286 288 288 287 287 287 285 288 283 286 285 288 290 292 295 296 297 296 296
286 285 287 286 285 287 287 288 290 292 294 293 293 294 294 289 290 288 291 291 290 292 291 293 283 286 282 288 288 283 286 288 288 288 287 286 285 291 295 296 295 296 297 296 296
292 292 290 286 286 285 285 288 288 292 295 296 296 294 293 294 296 297 296 296 294 290 290 289 286 284 282 284 285 280 285 287 287 289 289 285 289 291 292 294 295 296 297 296 296
Wind_Speed
17 17 16 15 14 14 15 16 13 16 14 17 17 15 12 10 10 2 8 8 5 6 8 7 5 5 5 2 2 4 2 5 6 2 7 8 5 3 1 6 5 5 7 17 14
18 17 17 16 14 13 16 18 16 16 16 15 16 14 7 4 6 9 6 13 8 4 7 6 4 5 3 2 3 3 2 8 3 4 8 9 9 6 5 8 5 7 10 13 12
18 18 18 17 15 14 15 19 19 17 17 15 14 11 9 2 4 9 14 17 22 10 8 4 11 2 7 3 3 6 4 2 6 5 11 8 5 7 6 6 11 12 9 11 11
17 18 18 16 15 15 15 15 18 16 15 17 16 12 8 1 11 5 23 21 19 9 7 4 6 6 4 7 7 2 1 4 3 3 5 8 5 3 1 4 7 12 12 11 12
17 17 17 17 17 16 15 15 15 14 14 14 15 16 6 2 8 2 16 19 11 11 11 6 6 7 6 6 8 5 3 5 6 2 5 8 6 2 8 8 8 7 12 11 10
17 16 16 16 15 14 15 15 16 15 15 15 16 14 0 4 5 5 8 12 11 12 11 8 5 9 7 7 7 5 6 7 6 6 3 3 5 3 5 8 8 5 8 10 10
18 17 16 16 15 15 15 16 15 14 13 16 16 8 5 9 1 5 8 5 5 13 10 8 12 5 5 3 3 4 6 4 5 7 3 1 3 4 6 4 8 7 8 8 9
19 17 16 17 16 16 16 16 14 13 13 15 15 6 6 4 6 5 4 7 6 6 10 8 7 6 2 5 3 6 6 6 3 5 2 2 2 7 7 6 8 10 8 7 7
20 18 17 18 16 17 18 17 14 13 13 16 8 5 7 2 4 5 6 8 9 7 4 1 3 4 3 4 5 8 6 6 4 3 5 4 5 5 2 6 8 7 8 8 7
22 20 18 19 17 19 21 18 16 15 10 10 4 3 6 6 5 7 3 5 5 8 6 6 6 5 5 8 11 6 4 7 7 7 1 4 1 7 6 4 7 7 7 7 7
22 22 21 21 22 24 21 13 10 7 15 8 13 5 6 5 6 5 7 8 5 7 7 9 8 14 13 9 9 9 9 6 7 3 4 7 5 9 9 5 4 5 5 7 7
22 24 23 23 23 24 15 10 14 11 10 10 4 12 4 2 5 10 9 8 7 11 9 8 13 10 10 12 9 6 9 6 6 5 3 7 9 7 8 6 4 4 4 7 4
25 23 25 24 22 16 15 13 17 17 7 7 5 11 3 3 5 14 12 7 8 11 15 8 6 10 12 5 6 6 8 6 6 4 1 1 5 8 1 4 4 1 2 4 4
25 25 26 26 14 14 15 14 2 5 6 10 7 6 5 3 1 2 6 4 9 17 10 5 3 8 7 8 8 5 3 8 12 7 5 6 5 7 7 7 5 7 6 8 6
26 27 27 23 9 16 10 9 4 1 6 14 8 3 4 5 9 4 0 1 10 9 7 4 6 7 7 7 7 3 7 7 6 4 2 3 2 1 9 8 8 7 7 7 7
29 29 28 10 7 13 6 5 3 3 7 8 7 9 9 5 3 4 4 2 2 4 6 4 3 2 3 5 4 7 9 6 4 3 2 6 7 5 7 8 9 7 7 7 7
12 28 20 5 10 13 9 6 5 6 14 9 9 12 17 8 6 7 14 7 7 8 8 4 3 2 2 9 1 6 8 3 1 1 6 7 3 8 3 6 11 11 10 9 8
14 27 12 3 7 10 5 7 7 12 14 4 10 15 12 10 3 7 12 10 8 8 11 8 4 8 5 6 9 7 8 7 7 5 5 3 7 6 3 7 13 10 10 9 9
12 11 7 3 2 6 10 15 11 13 13 9 14 15 7 12 7 7 14 16 12 8 6 8 3 3 4 3 6 7 6 4 8 2 5 6 5 1 2 7 10 11 9 9 9
3 7 4 4 4 5 10 13 8 2 14 13 9 12 14 18 9 11 17 14 12 12 1 6 7 3 1 2 1 2 7 4 1 5 4 6 4 6 9 13 12 12 10 9 9
3 7 1 4 1 7 16 14 8 4 13 12 7 11 10 12 11 12 15 6 19 9 7 0 6 2 3 6 7 2 4 3 5 5 6 3 8 1 19 18 17 14 12 12 10
3 4 1 2 9 9 12 12 6 5 4 5 2 5 13 15 12 9 10 7 8 12 10 2 6 5 3 1 2 3 5 7 6 4 1 4 7 3 2 16 16 15 12 11 9
2 1 1 2 10 13 7 15 15 5 4 2 4 3 2 12 7 6 7 4 5 8 12 8 3 5 4 3 1 4 4 4 5 4 5 6 8 3 1 13 14 16 13 12 10
1 2 3 2 4 6 15 19 17 9 5 2 3 5 3 7 2 12 4 2 2 4 6 4 4 8 10 6 9 8 10 8 8 4 5 7 4 3 6 13 15 15 15 13 12
1 3 0 4 2 3 18 10 18 10 4 5 1 5 7 5 10 4 7 4 4 5 2 2 7 6 2 3 2 7 14 12 9 19 9 19 10 8 10 13 18 13 14 15 15
3 2 2 2 2 8 2 13 23 16 13 8 4 8 7 5 7 8 9 6 6 2 8 3 3 3 2 6 5 1 4 14 18 21 12 11 9 9 14 10 13 17 17 17 17
1 1 1 2 3 2 2 4 4 3 7 6 10 3 6 3 6 3 3 9 11 12 9 8 6 4 8 4 5 3 14 13 13 15 19 19 22 4 7 15 17 18 21 21 19
Wind_Direction
200 184 182 189 173 170 175 163 174 162 161 165 158 153 153 141 125 100 194 195 221 24 342 312 258 252 264 227 335 329 298 243 245 223 120 144 114 347 324 119 76 51 32 122 134
196 183 178 180 169 174 170 166 174 165 149 153 157 153 151 206 172 215 203 197 265 322 245 248 219 188 236 239 179 209 244 237 208 42 134 164 141 140 158 127 107 89 94 115 136
189 187 180 174 172 171 167 171 166 163 156 153 152 136 132 247 159 228 189 195 223 243 270 311 294 56 247 170 247 187 247 142 35 35 127 158 138 161 146 184 161 151 145 142 151
184 187 180 173 169 169 163 164 169 167 163 158 154 150 122 291 175 186 163 203 225 188 246 287 256 99 280 202 203 282 270 13 98 359 120 141 95 151 298 81 83 140 148 153 162
180 185 181 172 163 159 159 160 160 162 159 158 163 142 145 214 259 182 157 176 172 209 208 206 230 166 236 212 183 200 137 61 96 109 73 112 126 168 116 97 61 93 143 163 169
178 176 175 164 161 164 156 160 152 150 144 148 147 145 159 250 222 186 131 131 173 193 211 194 232 213 219 258 188 173 132 139 147 106 43 133 89 20 69 136 127 137 165 169 170
172 171 169 160 160 166 151 143 140 138 144 147 151 153 218 237 162 182 127 131 170 200 198 202 239 262 216 244 94 127 113 140 145 163 121 310 109 209 132 171 177 184 177 182 189
168 168 165 154 159 155 143 132 132 141 151 147 154 169 241 231 198 146 184 127 209 251 234 211 222 263 96 92 119 171 160 148 163 166 153 199 220 120 143 172 200 180 187 169 186
165 163 165 153 149 144 132 125 128 133 140 133 142 203 242 90 178 174 187 137 178 214 227 194 157 225 120 211 178 207 176 178 163 263 136 185 149 153 170 198 229 166 174 159 166
163 160 159 150 147 135 122 121 120 125 149 167 147 212 218 204 161 152 178 163 164 160 143 184 188 190 203 208 195 161 241 189 151 200 151 186 182 157 180 213 185 174 148 150 173
163 158 157 151 147 136 127 128 144 163 186 179 173 249 148 82 114 181 137 166 182 173 172 201 190 204 203 208 246 174 202 149 103 111 148 204 204 179 168 181 244 165 175 168 141
163 160 155 151 148 146 166 174 180 135 180 241 138 209 74 250 127 157 158 165 172 186 189 174 211 201 218 215 230 267 177 167 60 104 96 202 225 241 161 169 177 165 118 116 109
161 160 155 149 146 157 189 209 201 152 147 190 217 188 169 181 170 176 182 179 192 188 202 175 166 235 215 186 181 240 173 154 130 125 297 71 258 205 157 104 111 120 64 99 120
161 157 154 141 149 172 205 214 354 68 153 160 188 180 144 221 206 115 226 179 190 193 194 231 198 166 161 185 179 180 52 130 124 145 201 170 263 190 157 162 199 164 190 142 119
162 157 155 148 144 178 178 192 121 23 181 155 146 144 124 176 134 231 127 179 192 156 155 171 152 157 188 192 192 171 118 129 141 181 141 227 101 237 135 181 186 172 136 116 119
156 157 158 164 149 170 182 110 112 222 210 158 142 160 143 162 158 115 154 257 322 96 82 90 286 146 163 50 106 139 94 75 83 115 304 206 161 230 182 202 146 140 147 130 116
167 160 159 164 160 157 133 144 163 203 143 165 179 163 170 153 143 191 177 179 152 142 164 128 144 89 162 82 108 143 139 113 147 192 218 334 121 243 182 153 151 153 148 141 143
351 155 149 70 123 137 159 177 198 193 181 146 150 150 173 136 167 192 169 192 231 205 151 162 201 166 195 168 174 201 169 151 179 174 210 333 226 244 75 119 134 132 144 149 123
350 152 107 28 316 157 166 189 198 169 177 135 141 157 153 171 136 156 192 195 203 204 173 168 113 55 61 19 153 208 216 122 105 33 73 209 259 125 120 123 130 141 142 140 135
321 130 72 334 315 166 194 197 207 285 142 152 159 188 175 173 148 174 182 200 198 201 45 168 114 353 349 313 22 212 146 85 48 130 227 237 233 203 198 184 158 157 168 152 137
4 120 64 326 205 174 204 194 189 356 133 169 182 175 181 171 176 186 184 188 194 170 132 21 107 126 134 216 167 149 181 192 152 162 169 162 257 293 190 183 172 172 172 153 146
342 109 30 279 157 201 208 190 222 154 56 268 153 149 189 168 181 185 187 181 197 150 160 107 105 135 176 11 354 329 199 180 146 230 88 147 272 322 179 174 172 174 163 150 151
52 29 348 292 170 189 168 215 209 133 176 187 185 106 251 167 147 183 170 351 10 147 167 176 154 89 20 339 20 231 184 232 112 87 200 132 257 326 301 162 176 169 154 153 145
146 98 5 30 7 181 191 200 215 156 156 162 108 95 120 162 111 184 134 13 51 91 61 124 142 164 190 190 135 192 201 201 185 130 183 219 178 215 177 166 171 167 158 152 151
17 53 32 160 155 121 188 186 204 183 197 143 90 216 155 137 181 199 139 101 23 113 103 155 203 193 201 93 121 186 187 183 207 225 181 236 220 193 190 175 181 159 151 158 166
120 147 70 23 78 135 167 214 205 194 170 195 233 185 228 146 179 170 132 160 174 162 169 143 252 158 94 71 56 32 224 195 208 228 239 256 258 177 190 171 157 166 169 174 176
13 39 268 101 100 93 114 178 208 228 221 202 177 167 181 103 51 157 116 152 151 153 161 151 143 111 233 97 87 327 220 203 209 220 212 228 232 157 164 179 179 179 185 185 178